Temp
52 52 52 53 54 54 52 46 38 40 43 35 34 33 36 42 38 41 40 38 35 32 34 31 29 30 34 37 35 28 31 29 17 21 16 12 17 17 24 21 16 22 21 1
50 50 50 51 52 52 45 42 40 40 40 31 33 35 36 39 38 38 37 35 37 36 33 29 32 30 36 38 36 32 31 26 18 17 21 21 13 9 10 13 18 14 18 0
49 50 50 50 50 50 44 41 34 32 33 32 32 34 34 34 40 38 38 37 37 34 32 34 30 28 34 36 37 43 35 28 24 22 18 12 6 3 6 10 15 6 -2 -3
49 48 48 48 49 48 42 40 37 39 32 29 31 33 33 32 32 37 38 33 34 33 30 31 31 33 34 34 32 37 32 26 17 10 9 5 2 0 1 -1 1 2 -5 -3
48 47 47 47 47 47 38 32 34 36 34 33 32 19 17 20 20 26 28 20 23 26 28 22 23 24 17 11 20 21 23 24 13 3 6 4 -1 1 -1 -2 -2 -0 -1 -2
46 46 46 45 45 45 36 34 37 34 20 21 19 10 12 19 17 25 22 20 23 16 15 17 16 16 14 12 11 10 16 18 18 -1 5 6 -1 -3 -2 -3 -1 -1 -5 -0
45 44 44 44 44 42 37 30 32 28 12 9 7 6 6 12 13 16 21 20 20 20 23 22 21 19 16 15 13 14 9 15 11 1 4 1 -2 6 5 -2 -1 1 2 3
44 44 43 42 41 38 28 25 26 24 -0 3 -0 -1 -4 2 8 11 19 17 20 21 20 19 15 16 15 11 13 9 11 11 4 0 -7 -4 1 2 2 0 -4 1 1 3
44 42 41 40 39 36 26 22 25 19 7 1 1 -5 -6 -3 -3 4 12 18 18 21 21 17 4 -3 3 1 4 13 10 10 7 3 -4 -7 -2 5 8 6 -5 2 2 2
45 43 42 40 38 35 22 14 15 13 2 -2 -1 -2 -2 2 -0 -3 8 9 12 18 15 7 3 -1 4 -6 -6 -4 -2 -3 -6 -2 -8 -5 2 5 8 -7 -8 1 1 0
45 45 44 41 40 37 25 11 17 14 3 -3 -1 -3 -5 -1 -0 -3 4 6 9 10 5 6 3 1 0 -3 -6 -8 -10 -13 -11 -6 -10 -10 2 5 -4 -6 -5 0 1 2
45 45 44 43 42 39 35 16 16 14 15 7 3 3 3 3 5 1 2 3 3 6 -1 -1 1 -4 -7 -17 -17 -8 -12 -14 -15 -13 -11 -12 -11 -8 -10 -8 -7 -4 -4 -0
45 45 44 43 41 39 27 8 6 10 4 4 9 5 9 14 3 6 -1 2 -2 -2 -4 -9 -12 -13 -13 -20 -17 -21 -13 -20 -16 -12 -11 -11 -16 -6 -2 -2 -4 -0 2 2
44 45 44 42 41 39 32 17 13 16 13 2 6 11 9 14 15 12 8 8 8 5 1 -9 -10 -9 -2 -15 -13 -11 -12 -12 -24 -18 -14 -14 -13 -6 -6 0 3 2 4 3
43 42 42 42 40 37 27 23 21 18 15 4 3 9 12 16 13 15 13 8 2 -3 -3 -7 -13 -10 -7 -16 -14 -20 -16 -14 -17 -13 -13 -11 -8 -10 -8 -6 -1 0 1 1
44 43 41 40 40 37 28 19 23 28 19 10 5 10 9 13 11 13 12 11 3 -5 -6 -18 -20 -19 -10 -18 -20 -10 -18 -23 -10 -8 -15 -12 -7 -12 -15 -12 -5 -4 -4 -3
42 42 42 40 39 26 19 16 21 31 17 12 5 7 12 9 8 8 8 7 -4 -3 -16 -9 -14 -9 -4 -18 -16 -4 -11 -10 -16 -20 -14 -11 -17 -6 -16 -14 -7 -3 -8 -8
42 41 40 39 37 31 19 21 28 23 16 14 -2 3 8 8 5 1 5 1 -0 2 -11 -9 -8 -4 -7 -5 3 -3 -11 -13 -13 -10 -12 -4 -12 -10 -5 -10 -12 -10 -7 -8
42 41 40 27 23 19 20 32 27 19 17 -1 -2 -8 -4 6 4 -1 2 2 3 5 -2 -6 -0 -3 2 7 6 -1 -1 -5 -1 -9 -12 -8 -9 -5 -3 -5 -4 -8 -3 -3
41 30 27 18 21 34 31 20 15 11 9 5 -6 -1 -5 -0 1 -2 -2 -3 -3 -8 -4 -1 -6 -6 1 2 4 2 0 -3 -11 -9 -1 -4 -1 1 -1 -3 -1 -2 -2 -2
25 22 20 23 31 23 16 8 6 4 -1 2 -2 -5 -6 2 -8 -11 -9 -12 -9 -11 -4 -5 -12 -6 4 9 9 10 8 5 1 -1 2 -1 -1 -1 -1 0 1 2 1 0
26 25 25 22 18 13 10 -2 5 0 -4 -1 -4 1 -1 -0 -1 -9 -7 -13 -10 -9 -6 -9 -9 1 5 2 10 10 9 7 5 4 2 3 3 2 1 1 2 2 3 3
25 19 11 14 9 7 -0 -4 1 0 0 -2 0 -2 -2 0 3 -13 -11 -9 -10 -4 -12 -6 1 4 7 11 13 11 12 11 8 7 7 6 6 7 4 2 4 3 1 2
13 8 8 3 0 -2 -3 -2 -1 5 -1 3 -0 -6 -2 -1 -7 -10 -8 -7 -9 -9 -9 -1 6 15 16 15 13 8 11 12 11 10 9 7 7 6 8 6 4 1 -1 2
6 10 2 3 4 1 -2 -2 0 4 2 3 0 -0 1 -5 -10 -4 -3 -0 -4 -4 -0 6 16 18 18 17 16 12 11 11 10 9 8 8 7 6 6 7 5 1 1 1
8 6 5 1 1 2 -3 -5 -0 5 4 4 2 -8 -7 -8 -6 0 -5 -4 -1 4 12 17 17 16 16 17 17 16 14 12 12 12 11 10 9 8 7 8 7 4 3 1
7 4 4 2 1 3 1 1 4 6 5 1 -1 -1 -2 -1 1 3 6 7 12 15 16 17 16 15 15 15 15 16 15 13 13 13 13 11 11 10 7 4 8 8 6 5
MSLP
1018.91 1018.42 1017.87 1017.30 1016.56 1015.77 1014.90 1015.10 1014.96 1015.15 1014.99 1015.40 1013.94 1012.15 1011.14 1010.57 1009.77 1009.79 1009.55 1009.62 1009.63 1009.56 1009.89 1009.52 1009.65 1009.27 1008.70 1008.34 1009.06 1010.25 1010.26 1010.94 1012.05 1012.91 1014.23 1014.84 1015.30 1015.95 1015.30 1015.46 1015.37 1015.89 1018.28 1024.54
1019.18 1018.67 1018.00 1017.47 1016.72 1016.32 1015.92 1014.71 1014.38 1015.11 1014.80 1013.94 1012.59 1011.68 1010.58 1010.26 1009.66 1009.52 1009.29 1008.72 1008.82 1008.80 1008.89 1009.13 1008.68 1008.54 1007.71 1008.25 1008.61 1009.22 1010.01 1010.71 1012.34 1013.98 1015.77 1016.50 1017.77 1019.12 1018.86 1018.15 1017.57 1018.49 1021.16 1026.24
1019.36 1018.73 1018.19 1017.53 1016.88 1016.62 1016.44 1015.14 1014.54 1015.14 1014.95 1013.61 1012.90 1012.10 1010.79 1010.04 1009.45 1008.91 1008.82 1007.99 1008.63 1008.68 1008.55 1008.51 1008.33 1008.61 1008.03 1008.08 1008.47 1008.35 1009.56 1010.34 1011.96 1014.36 1016.30 1018.21 1020.69 1021.95 1021.69 1021.19 1021.27 1022.26 1025.04 1027.85
1019.50 1018.91 1018.21 1017.60 1016.97 1016.63 1016.66 1015.44 1014.05 1013.69 1013.81 1013.83 1013.33 1012.96 1011.73 1011.25 1010.11 1009.03 1008.44 1008.01 1008.46 1008.74 1008.65 1009.02 1008.86 1008.73 1009.08 1009.17 1009.72 1009.01 1009.65 1010.39 1012.96 1016.66 1018.43 1020.52 1023.49 1024.61 1024.56 1024.79 1025.45 1026.12 1028.25 1029.58
1019.89 1019.14 1018.27 1017.81 1017.21 1016.61 1016.42 1015.97 1015.22 1014.66 1014.98 1015.09 1015.22 1016.48 1016.36 1015.99 1014.34 1012.98 1012.15 1012.46 1011.79 1010.58 1010.16 1011.63 1011.75 1011.04 1011.95 1013.11 1012.36 1011.75 1011.52 1012.00 1014.69 1019.29 1021.33 1023.18 1025.24 1026.81 1027.44 1028.27 1028.80 1029.51 1030.37 1031.38
1020.23 1019.45 1018.59 1018.10 1017.41 1016.77 1016.65 1016.47 1016.48 1016.71 1018.78 1019.27 1019.64 1021.77 1021.00 1019.08 1018.37 1016.20 1015.38 1015.21 1013.94 1013.69 1015.04 1015.17 1015.37 1014.86 1015.70 1016.39 1016.08 1015.50 1014.64 1014.88 1015.84 1020.82 1022.68 1023.87 1026.52 1029.55 1030.11 1030.66 1031.12 1031.48 1032.07 1032.89
1020.46 1019.84 1019.08 1018.52 1017.80 1017.43 1017.60 1018.70 1018.63 1018.65 1021.86 1023.01 1024.35 1024.72 1024.36 1022.61 1021.23 1019.51 1017.70 1017.18 1016.28 1017.49 1016.97 1016.83 1016.36 1016.05 1016.86 1017.64 1018.71 1018.71 1017.48 1017.49 1018.83 1022.04 1024.08 1026.40 1030.37 1030.78 1031.40 1032.21 1032.80 1033.14 1033.39 1033.63
1021.05 1020.34 1019.61 1018.93 1018.56 1018.52 1019.10 1020.14 1020.02 1020.84 1025.21 1026.81 1027.22 1027.25 1026.71 1024.34 1022.86 1021.47 1020.01 1019.32 1019.26 1018.01 1017.81 1017.37 1017.39 1017.69 1019.04 1020.40 1020.95 1020.22 1020.13 1020.17 1021.74 1023.63 1026.66 1029.92 1030.85 1031.71 1032.43 1032.76 1033.98 1034.31 1034.40 1034.37
1022.03 1021.11 1020.11 1019.77 1019.57 1019.52 1020.20 1021.43 1021.41 1022.46 1026.05 1029.80 1030.53 1029.81 1028.92 1027.90 1026.12 1023.63 1021.68 1020.32 1019.41 1018.72 1018.20 1018.36 1020.09 1022.26 1023.79 1023.50 1023.41 1023.34 1023.44 1022.71 1023.40 1025.90 1028.38 1031.01 1032.30 1032.69 1032.94 1032.93 1034.36 1035.12 1035.25 1035.10
1022.73 1021.98 1021.18 1020.86 1020.41 1020.70 1020.97 1022.46 1022.49 1023.61 1028.25 1031.29 1031.27 1031.44 1031.07 1029.80 1028.49 1027.16 1024.85 1023.47 1021.53 1020.19 1020.38 1021.89 1023.72 1025.67 1026.97 1028.44 1029.34 1029.20 1028.53 1028.61 1029.30 1029.71 1031.49 1033.39 1033.73 1033.80 1033.60 1034.58 1036.50 1035.81 1035.83 1035.75
1023.29 1022.72 1022.25 1021.88 1021.62 1021.59 1021.65 1023.91 1023.39 1024.13 1028.56 1031.02 1031.33 1031.61 1031.50 1030.62 1030.00 1029.07 1026.37 1025.25 1024.47 1023.87 1024.17 1025.58 1027.37 1028.72 1030.43 1032.10 1033.86 1034.09 1034.41 1034.53 1034.27 1033.80 1034.53 1035.64 1035.41 1035.00 1035.53 1036.55 1036.44 1036.37 1036.14 1035.96
1024.09 1023.58 1023.21 1022.89 1022.69 1022.56 1022.63 1024.64 1024.82 1024.93 1026.86 1030.62 1030.67 1030.66 1030.65 1030.59 1030.22 1029.78 1028.49 1028.48 1028.17 1027.93 1027.88 1029.02 1030.29 1032.28 1033.75 1035.32 1036.96 1036.90 1037.71 1038.25 1038.34 1038.15 1037.95 1037.53 1036.94 1037.50 1036.93 1036.70 1036.95 1036.61 1036.31 1035.92
1024.89 1024.48 1024.07 1023.70 1023.53 1023.38 1023.56 1025.60 1026.47 1026.41 1028.93 1030.26 1030.09 1030.27 1029.86 1029.31 1029.50 1029.49 1029.56 1028.96 1029.15 1029.36 1029.95 1031.23 1033.31 1035.40 1036.79 1038.35 1039.64 1039.69 1039.59 1039.43 1039.87 1040.03 1039.03 1038.64 1038.14 1037.72 1037.25 1036.97 1036.83 1036.44 1036.11 1035.69
1025.42 1025.28 1025.22 1024.90 1024.43 1024.21 1024.24 1025.48 1026.07 1026.23 1028.32 1030.36 1031.05 1029.97 1029.97 1029.51 1028.87 1028.94 1029.04 1029.02 1029.45 1030.01 1030.74 1033.13 1035.62 1037.14 1037.78 1039.65 1040.40 1040.81 1041.02 1040.61 1041.27 1040.52 1039.63 1039.23 1038.59 1038.30 1037.47 1037.07 1036.54 1036.14 1035.58 1035.29
1025.92 1025.93 1025.79 1025.57 1025.53 1025.33 1025.25 1025.49 1026.00 1026.24 1027.01 1030.12 1030.92 1030.71 1030.24 1029.88 1029.37 1029.13 1029.09 1029.23 1030.25 1031.78 1033.31 1036.00 1038.37 1038.60 1038.89 1040.37 1040.81 1041.53 1041.00 1040.80 1041.08 1040.59 1039.93 1040.04 1038.91 1037.91 1037.69 1037.31 1036.55 1035.83 1035.45 1034.87
1026.47 1026.22 1025.89 1025.71 1025.63 1025.60 1025.59 1026.46 1026.45 1026.39 1026.96 1028.82 1031.25 1031.90 1031.59 1030.56 1030.17 1029.89 1030.24 1030.71 1031.80 1033.48 1035.69 1038.23 1038.98 1039.04 1039.09 1040.47 1041.43 1039.99 1039.70 1040.22 1039.54 1039.55 1038.92 1039.06 1038.20 1037.80 1037.11 1037.13 1036.17 1035.42 1035.23 1034.70
1026.85 1026.72 1026.53 1026.34 1026.32 1026.65 1027.58 1029.01 1028.26 1027.22 1027.69 1029.08 1031.85 1032.75 1032.61 1032.49 1031.92 1031.99 1032.15 1032.22 1033.65 1034.54 1036.66 1038.20 1039.12 1038.68 1038.44 1039.42 1039.65 1038.38 1038.41 1038.43 1038.60 1038.90 1039.30 1038.52 1037.86 1037.06 1036.23 1036.22 1035.39 1034.91 1034.51 1034.24
1026.93 1026.91 1026.98 1027.07 1027.10 1027.60 1028.22 1028.87 1028.30 1028.11 1028.92 1030.53 1033.88 1034.81 1034.06 1034.59 1034.54 1034.40 1034.10 1034.37 1034.50 1035.74 1037.62 1038.60 1038.66 1038.19 1037.95 1038.01 1037.13 1036.96 1037.30 1037.37 1037.61 1037.55 1037.60 1036.51 1036.16 1035.98 1035.28 1034.85 1034.62 1034.50 1033.93 1033.35
1027.07 1026.97 1027.03 1027.65 1027.96 1028.76 1029.22 1028.83 1028.97 1029.37 1030.32 1034.09 1037.25 1039.05 1037.68 1036.52 1036.50 1036.36 1035.61 1035.44 1036.03 1036.58 1037.63 1038.25 1038.29 1037.54 1037.14 1036.06 1035.62 1035.52 1035.82 1036.28 1036.21 1036.11 1036.24 1035.87 1035.60 1034.67 1034.09 1033.85 1033.50 1033.43 1032.72 1032.31
1027.00 1027.18 1027.61 1028.87 1029.50 1029.00 1029.03 1029.16 1029.96 1031.62 1034.30 1036.42 1039.65 1040.77 1039.87 1039.44 1038.21 1037.81 1037.56 1036.90 1037.50 1037.60 1038.34 1037.98 1037.54 1037.06 1035.28 1034.34 1033.64 1033.61 1033.90 1034.39 1035.10 1035.42 1034.58 1034.30 1033.92 1033.46 1032.91 1032.53 1032.20 1032.00 1031.55 1031.15
1027.64 1028.33 1029.22 1029.62 1029.26 1029.50 1030.64 1032.75 1034.50 1036.44 1038.34 1039.85 1040.74 1041.10 1040.99 1040.21 1040.41 1040.24 1039.87 1039.36 1038.74 1038.61 1038.56 1037.88 1037.43 1036.00 1034.08 1032.40 1032.34 1032.01 1032.11 1032.39 1032.86 1033.01 1032.59 1032.47 1032.36 1032.10 1031.68 1031.06 1030.72 1030.46 1030.12 1029.80
1028.37 1028.74 1029.69 1029.98 1031.12 1031.99 1034.10 1037.24 1038.16 1039.45 1040.85 1040.93 1041.05 1041.07 1041.00 1040.63 1040.60 1040.90 1040.22 1040.02 1039.38 1038.92 1038.49 1037.66 1036.16 1033.85 1032.17 1031.58 1030.99 1030.63 1030.65 1030.89 1031.08 1031.07 1031.02 1030.73 1030.60 1030.32 1030.16 1029.82 1029.40 1029.13 1028.80 1028.55
1028.61 1029.61 1031.90 1033.39 1035.67 1037.49 1039.79 1041.44 1041.08 1041.41 1041.46 1041.48 1041.51 1041.48 1041.26 1040.75 1040.58 1040.90 1040.87 1040.08 1039.27 1038.28 1037.48 1036.21 1034.11 1032.24 1031.24 1030.43 1029.90 1029.56 1029.35 1029.53 1029.62 1029.54 1029.39 1029.19 1028.92 1028.70 1028.64 1028.38 1028.10 1027.97 1027.85 1027.58
1031.19 1033.52 1036.44 1038.02 1040.45 1041.15 1041.85 1042.57 1042.39 1041.58 1041.51 1041.55 1041.66 1041.73 1041.54 1040.96 1040.72 1040.57 1040.19 1039.26 1038.48 1037.43 1036.40 1034.29 1032.30 1031.03 1030.16 1029.53 1029.01 1028.91 1028.52 1028.40 1028.38 1028.22 1028.04 1027.92 1027.76 1027.45 1027.22 1027.11 1026.95 1027.01 1026.75 1026.42
1034.28 1036.06 1039.68 1040.88 1041.43 1041.73 1042.13 1042.27 1042.21 1041.44 1041.29 1041.39 1041.41 1041.32 1041.28 1040.67 1040.32 1039.47 1038.74 1037.92 1037.23 1036.19 1034.56 1032.45 1031.18 1030.29 1029.63 1028.98 1028.47 1028.18 1027.86 1027.53 1027.39 1027.19 1027.06 1026.78 1026.59 1026.43 1026.06 1025.86 1025.80 1025.83 1025.67 1025.45
1036.51 1038.93 1041.30 1041.81 1042.10 1042.23 1042.38 1042.39 1041.95 1041.27 1041.15 1041.18 1041.21 1040.97 1040.58 1040.29 1039.87 1038.52 1037.84 1037.34 1035.76 1033.96 1032.69 1031.53 1030.67 1030.01 1029.38 1028.76 1028.11 1027.65 1027.33 1026.98 1026.60 1026.29 1026.02 1025.72 1025.51 1025.31 1024.94 1024.65 1024.57 1024.48 1024.40 1024.20
1039.46 1041.44 1041.32 1041.81 1041.99 1042.18 1042.33 1042.09 1041.58 1041.19 1040.96 1041.08 1040.87 1040.91 1040.51 1039.56 1038.45 1037.41 1036.33 1035.26 1034.15 1033.06 1031.87 1031.21 1030.67 1029.97 1029.24 1028.67 1028.02 1027.41 1026.96 1026.49 1026.04 1025.54 1025.12 1024.75 1024.39 1024.24 1024.11 1023.74 1023.05 1023.05 1022.90 1022.75
Wind_Speed
21 21 21 21 20 22 5 3 6 2 2 3 4 6 6 6 7 8 12 6 12 9 9 7 9 11 11 9 8 8 8 5 5 7 2 2 3 2 3 3 4 4 2 3
20 20 20 19 18 17 5 4 3 1 2 8 9 6 8 9 9 12 8 10 10 9 8 8 11 7 8 9 12 7 6 4 1 4 3 4 5 4 3 2 2 4 4 3
21 21 21 19 17 17 5 5 5 2 2 2 4 14 14 12 13 21 13 11 14 11 12 13 6 7 5 9 10 16 12 7 9 9 4 4 5 7 4 2 2 2 4 5
24 23 21 19 16 16 3 3 6 2 4 5 13 14 8 19 13 11 8 7 19 17 12 15 18 15 8 5 10 7 8 6 7 10 9 9 12 13 15 7 3 2 4 6
23 22 19 20 19 18 3 3 4 4 5 9 11 15 6 9 10 10 8 11 16 17 11 7 7 7 9 7 8 7 8 0 6 8 16 20 21 10 9 8 6 11 9 8
25 21 19 19 17 11 3 4 5 4 12 6 5 5 7 8 13 3 9 10 6 15 6 9 10 20 15 10 7 8 5 4 2 5 10 2 10 9 7 4 8 2 4 1
24 21 20 19 17 13 1 3 3 2 4 5 4 7 7 14 12 8 6 10 5 4 6 7 6 15 18 18 17 12 5 3 5 5 4 2 2 6 10 9 6 8 6 5
25 21 21 18 17 17 5 3 2 3 5 6 7 14 6 12 8 6 4 5 6 9 4 4 2 4 4 11 11 19 14 2 6 5 5 4 2 3 3 3 3 5 4 4
27 25 25 23 20 12 5 6 3 5 7 10 6 4 3 5 6 9 5 5 8 5 3 4 6 6 5 8 13 10 14 14 6 3 5 2 1 4 7 2 3 3 4 6
25 27 27 24 18 22 8 3 3 8 8 5 4 4 4 5 3 4 5 10 11 8 4 5 5 3 3 6 7 10 9 7 8 6 5 1 1 9 4 2 3 4 3 5
19 21 26 26 25 24 7 1 7 7 6 4 2 2 2 5 2 2 7 4 7 7 7 4 4 5 4 5 3 3 4 4 4 3 5 2 4 2 1 4 2 4 4 3
20 19 18 16 16 18 14 8 3 3 10 7 6 7 7 7 6 2 5 4 3 2 4 4 4 4 5 1 2 6 4 4 3 4 5 5 4 4 4 5 4 3 3 6
19 24 20 15 14 17 10 4 2 5 5 4 5 5 6 3 3 3 3 3 2 5 4 4 3 8 3 3 3 0 6 0 2 4 5 5 5 5 3 4 5 6 8 9
8 12 18 19 23 21 11 4 2 5 5 6 7 2 5 8 6 2 3 4 2 3 4 5 5 5 2 1 3 4 4 3 1 6 6 6 5 6 5 6 6 8 8 9
8 5 4 3 9 12 9 4 3 3 7 6 4 3 4 7 8 12 9 10 6 5 6 6 2 1 4 2 2 3 3 5 3 6 6 5 8 5 2 5 11 7 9 11
21 22 17 7 6 5 2 5 4 8 3 6 3 3 7 10 9 13 12 8 5 5 5 2 1 3 5 5 1 7 6 3 6 6 5 8 8 8 5 5 8 8 7 10
8 13 18 23 24 8 6 2 6 12 3 5 4 5 5 7 4 4 5 5 3 4 2 4 2 3 4 4 1 8 7 8 6 4 2 7 3 7 4 7 11 12 8 8
3 4 6 7 5 6 5 5 10 4 6 6 5 6 4 10 5 5 5 4 3 7 3 1 3 3 2 2 7 7 6 6 6 9 11 10 4 8 10 5 4 6 9 7
2 2 3 4 6 4 3 2 8 5 6 6 5 3 6 8 3 1 5 1 4 2 3 2 1 3 3 7 8 6 6 5 8 5 6 8 9 13 11 7 6 6 11 9
2 4 4 4 2 7 5 6 6 9 7 7 4 2 4 4 4 4 4 3 2 3 3 2 4 4 5 7 9 8 8 9 4 3 8 3 7 8 8 9 10 10 12 11
3 3 2 2 7 3 5 6 7 5 6 4 1 2 3 2 2 3 2 1 2 4 5 3 3 4 6 7 7 8 8 7 9 10 11 8 10 11 12 13 11 10 10 11
3 5 3 3 7 6 10 4 5 7 2 4 3 3 2 4 2 3 3 1 4 2 2 4 4 6 7 5 8 9 7 7 9 8 12 12 11 11 11 11 11 11 10 10
3 6 8 7 7 14 8 7 7 6 3 2 4 4 2 4 2 2 3 5 3 0 5 3 5 5 6 8 6 8 7 7 7 9 9 10 11 10 10 12 11 10 10 9
7 7 10 6 6 1 5 5 4 5 2 3 1 2 2 2 4 0 3 3 2 5 5 4 4 12 13 10 6 2 8 8 9 10 10 10 10 11 11 10 10 8 10 10
6 6 4 3 3 3 3 2 3 3 1 1 2 2 1 2 2 0 3 7 5 3 4 5 12 17 16 15 12 9 9 8 8 8 9 10 10 9 11 10 9 8 9 10
6 8 5 1 3 4 3 1 4 1 1 1 1 1 4 3 0 5 0 2 4 5 7 11 13 17 16 16 15 13 10 9 10 9 9 10 10 10 10 9 8 9 10 10
7 2 1 2 2 4 3 1 3 2 1 3 2 5 2 3 4 4 3 3 7 12 13 11 15 17 17 16 15 14 12 11 11 11 10 10 10 8 8 11 12 9 10 10
Wind_Direction
348 344 341 337 342 342 298 238 259 123 200 201 221 230 221 238 226 231 244 239 221 227 220 226 219 216 212 166 149 179 206 205 209 221 224 162 72 72 194 193 256 232 265 116
352 351 348 343 340 353 322 260 261 44 262 240 233 238 243 240 235 223 217 214 215 205 232 249 214 213 230 170 161 191 178 207 260 328 18 44 69 32 356 301 244 224 272 117
353 349 343 340 345 349 333 283 275 255 215 282 253 260 253 252 226 240 239 242 218 229 235 217 226 223 245 187 202 198 169 192 187 231 165 113 80 18 334 286 242 36 51 114
354 347 343 340 340 341 314 246 265 265 267 259 240 256 272 266 261 232 218 222 230 233 236 242 232 229 210 193 335 228 196 220 88 32 74 83 94 65 49 75 329 60 121 95
358 353 358 357 347 336 226 283 314 343 323 335 335 20 37 351 329 345 355 7 2 359 295 342 340 342 21 45 343 359 343 248 102 69 89 85 71 54 63 49 54 81 90 80
2 358 357 359 355 358 312 351 352 341 33 13 10 11 308 329 338 185 57 332 303 36 45 92 90 87 82 57 42 350 18 351 85 117 160 191 47 18 49 80 38 62 80 51
11 8 13 3 11 10 41 27 301 306 37 32 30 357 313 320 311 286 9 349 31 51 153 135 103 82 72 53 46 23 30 9 58 100 238 138 184 55 89 99 50 28 48 29
22 15 22 18 39 39 74 10 354 81 84 321 347 339 307 319 309 342 320 6 335 305 240 263 330 34 34 30 26 23 19 2 69 109 56 129 115 26 349 12 75 21 359 6
33 36 31 50 43 61 74 40 0 85 111 359 290 322 323 339 322 327 323 338 321 329 250 32 46 41 317 356 347 20 13 34 77 63 88 103 357 321 326 153 203 15 343 321
44 44 48 50 59 64 77 39 11 84 101 293 50 14 299 302 307 248 305 340 340 345 46 59 40 63 11 30 26 347 352 1 47 38 96 104 336 309 318 57 231 317 291 289
37 45 53 60 65 65 78 22 24 106 112 266 121 241 338 322 14 349 296 349 358 358 52 63 41 51 45 79 9 22 31 360 16 5 78 39 349 338 113 204 262 261 292 256
44 49 59 63 70 71 59 63 349 43 79 192 188 201 191 178 225 201 323 149 295 324 76 42 86 54 41 60 33 345 30 146 203 131 204 243 268 195 236 163 189 270 255 265
57 57 59 57 63 61 89 134 259 50 82 7 46 347 312 311 193 189 88 333 232 20 185 140 141 80 118 64 314 352 338 118 84 37 292 252 287 288 219 195 217 257 267 269
45 55 58 62 62 72 76 79 265 76 109 94 301 5 11 302 346 77 182 163 71 103 54 76 78 95 24 175 178 113 211 12 304 268 290 307 289 238 230 249 272 274 266 264
43 17 19 69 81 63 60 69 34 103 116 158 244 317 333 347 2 33 38 49 51 30 38 46 58 86 76 357 81 346 185 196 115 243 225 180 251 248 246 260 285 274 284 292
60 56 47 17 333 344 4 19 3 18 54 93 47 265 353 345 359 27 22 22 52 71 94 150 327 255 94 85 127 257 235 238 185 239 201 211 260 272 234 229 256 256 259 262
49 49 55 59 58 54 65 171 278 336 42 75 28 353 9 339 360 19 1 19 45 82 117 54 121 10 73 88 43 262 250 234 245 246 109 291 208 250 227 223 267 288 277 260
51 53 46 32 48 68 29 2 16 35 85 47 61 315 11 4 355 345 6 3 21 20 140 29 49 334 59 43 248 276 264 270 262 242 212 240 280 287 275 247 262 274 275 269
247 315 32 54 32 42 286 319 40 34 71 94 63 34 294 359 357 334 334 19 50 251 55 9 22 299 44 258 281 273 260 217 254 290 240 252 244 269 275 260 282 259 285 284
72 43 48 19 312 297 11 8 19 23 13 34 85 187 297 3 352 326 341 12 47 53 282 323 57 264 277 264 247 248 259 236 171 304 296 272 273 271 272 264 266 255 267 272
42 47 84 254 317 52 34 43 42 345 28 21 297 155 299 347 28 297 69 269 322 58 283 86 330 298 244 249 268 267 253 241 222 225 251 244 249 267 274 277 269 264 264 265
144 123 93 38 27 30 62 4 349 42 312 328 358 311 232 301 107 50 327 79 31 263 304 67 338 255 255 270 270 273 250 246 257 229 245 253 246 243 248 262 265 265 268 271
54 48 46 36 322 36 54 343 322 342 338 339 339 324 350 333 19 6 27 38 251 318 36 243 232 271 282 271 276 274 265 250 250 264 254 257 262 260 244 259 259 260 262 264
64 59 28 75 355 326 187 198 219 259 237 327 323 278 329 303 355 3 38 239 54 21 11 268 292 325 316 302 270 268 278 271 265 267 265 261 263 266 264 251 256 256 260 266
72 60 67 63 232 246 237 255 306 251 230 346 316 292 315 312 346 165 306 2 343 202 252 272 325 323 323 320 312 287 284 280 267 265 265 266 263 263 270 264 251 240 255 261
73 55 72 313 45 305 334 256 266 274 290 214 178 317 20 343 328 11 296 72 256 280 310 316 320 319 318 320 318 312 291 284 280 276 272 273 272 266 268 274 260 254 250 257
55 4 357 112 120 206 251 211 270 314 328 15 14 31 277 302 337 330 183 270 317 314 312 315 313 313 316 317 313 314 310 302 295 292 286 274 276 273 270 275 278 260 251 246